RH
78 86 80 87 83 77 74 68 66 64 69 78 71 73 78 82 86 89 93 97 92 68 70 89 93 94 87 80 84 79 78 63 56 53 58 48 55 90 64 63 64 64 76
75 78 86 91 83 78 71 71 69 68 66 70 76 71 70 73 72 73 77 82 77 90 74 67 66 72 79 81 69 89 87 80 59 66 69 64 63 64 59 52 53 71 64
74 76 91 88 82 78 76 78 78 78 77 76 77 78 75 76 72 70 72 69 62 88 92 81 72 65 70 71 81 79 84 85 79 61 70 72 72 69 76 71 56 59 76
74 75 81 87 87 83 84 84 86 86 87 88 87 87 86 83 82 81 82 77 72 73 93 93 83 82 80 67 68 76 78 80 84 76 68 65 68 71 68 90 81 85 87
76 79 88 87 89 86 87 86 86 87 89 89 88 85 88 88 90 91 90 87 84 80 77 90 94 90 89 88 82 67 70 78 78 79 67 65 71 69 71 71 90 86 83
80 84 90 89 89 90 89 88 88 86 85 86 86 87 87 90 89 91 87 84 84 83 84 83 78 82 87 91 91 89 78 77 81 72 70 70 80 79 70 76 80 96 92
78 83 93 90 89 89 88 86 87 89 88 85 84 80 77 78 81 82 81 82 84 86 86 88 90 90 85 86 87 87 88 81 86 72 71 73 76 81 68 75 93 96 97
86 92 97 92 90 87 86 85 83 77 72 70 62 52 47 46 49 53 61 71 76 73 62 64 82 89 91 88 88 88 88 89 89 78 76 76 76 79 79 85 92 95 96
96 92 84 82 87 84 74 56 43 38 38 40 40 39 35 32 32 33 39 44 47 47 47 47 49 52 63 77 88 92 91 90 92 78 78 74 77 83 79 95 95 93 93
81 76 70 62 53 48 50 43 40 37 31 27 28 30 31 32 33 39 34 38 37 39 40 41 41 41 42 46 51 70 86 89 92 85 85 85 86 87 98 99 96 96 96
66 61 58 51 48 49 46 38 34 26 28 30 33 31 38 46 48 49 37 36 37 38 38 37 37 36 36 38 41 45 53 68 76 81 84 86 89 90 99 98 97 97 97
58 55 51 48 42 33 26 27 30 27 36 43 46 49 47 49 51 40 53 44 46 46 46 47 47 44 46 46 44 44 42 46 60 70 78 86 86 88 99 95 91 91 92
55 53 46 37 28 28 39 36 41 38 48 50 55 56 57 57 60 59 59 60 63 61 60 62 61 58 59 57 54 48 45 43 42 47 62 80 76 81 98 98 96 96 96
57 55 41 33 31 28 28 41 45 47 49 54 59 60 57 55 57 59 58 62 62 61 62 62 60 60 60 58 58 56 53 50 46 44 48 63 64 85 88 93 94 90 86
54 52 42 34 33 30 35 40 49 50 55 58 60 61 62 58 59 60 57 58 62 67 66 65 63 60 58 58 58 58 56 54 54 53 53 63 70 60 62 62 86 84 78
49 47 39 36 35 35 36 42 52 53 56 56 54 59 59 63 66 65 64 66 69 75 74 72 68 64 62 59 59 58 58 57 58 59 58 60 68 60 65 70 86 86 86
48 49 39 39 38 39 39 42 53 56 53 50 52 55 59 65 69 72 70 74 78 81 81 77 74 70 63 59 61 61 60 59 59 59 60 64 67 75 71 67 64 67 83
50 44 46 41 42 46 43 46 57 54 49 50 49 55 63 65 70 68 69 73 79 81 80 78 76 74 67 63 64 62 63 67 66 66 70 69 73 74 74 68 58 57 58
42 42 50 55 54 52 44 45 43 33 46 47 52 56 54 63 67 65 67 72 75 80 78 78 81 76 72 69 69 61 61 65 69 72 68 70 72 75 72 75 73 76 72
35 39 45 54 54 54 49 47 44 39 46 47 53 55 59 63 65 65 66 71 78 80 77 83 88 80 73 75 70 63 67 70 78 72 67 64 69 74 79 86 86 91 99
34 41 46 51 55 56 55 50 43 41 51 55 57 44 57 61 64 66 63 67 73 75 76 84 87 86 74 83 70 63 58 72 60 65 63 61 66 73 83 88 88 98 97
33 39 47 50 57 57 55 53 46 53 55 46 43 48 48 56 56 64 64 63 68 71 71 77 89 84 78 78 79 76 56 51 58 63 65 62 60 71 81 87 97 98 95
44 47 50 55 58 57 52 53 46 44 46 51 54 58 62 53 58 61 69 66 67 71 68 75 84 89 82 82 82 78 66 60 61 62 62 60 61 66 93 92 96 99 99
50 59 58 59 59 57 51 57 55 48 46 46 55 58 62 58 62 61 63 70 68 68 70 75 78 88 92 83 84 86 79 82 73 64 56 53 64 67 79 86 85 92 96
60 61 60 59 56 56 50 51 59 58 56 59 62 64 63 65 63 60 61 72 71 68 68 76 81 85 90 88 89 87 84 84 78 70 66 53 62 60 70 79 86 83 86
62 63 62 59 57 51 52 60 64 64 61 60 60 61 60 62 67 71 63 65 74 72 69 70 81 84 84 84 86 87 90 81 72 72 66 65 62 64 70 77 74 81 82
Wind_Speed
11 12 12 11 10 9 9 9 9 9 9 8 7 6 5 4 4 4 5 7 6 5 4 4 3 3 3 4 2 2 2 3 3 2 3 3 3 3 3 2 1 2 3
17 13 12 11 10 9 9 9 9 8 8 7 6 6 5 4 4 4 5 6 6 2 2 3 2 2 3 3 2 4 4 4 4 3 2 4 4 3 3 3 3 4 4
16 14 12 10 10 9 9 8 8 7 6 6 5 4 4 4 4 5 6 6 6 3 3 3 3 3 3 4 3 3 5 6 6 5 5 4 3 5 4 5 4 4 4
16 14 12 11 9 9 8 7 6 5 4 4 3 3 3 4 5 5 6 6 7 6 2 5 5 6 6 5 5 6 7 7 8 8 7 7 6 8 6 6 6 5 5
15 12 11 11 9 8 7 6 5 3 3 3 3 4 5 5 6 6 6 6 6 6 4 6 8 9 9 9 8 8 9 9 9 9 9 8 8 8 8 7 8 8 7
14 11 11 10 9 8 7 5 4 3 2 1 2 3 4 5 5 6 5 6 7 7 7 8 9 10 11 12 12 11 10 10 10 9 10 11 11 11 10 9 9 10 11
14 11 10 9 9 8 6 5 3 2 1 2 3 4 5 7 7 7 8 7 8 8 9 10 11 12 13 12 14 14 12 11 10 11 12 12 12 14 12 12 12 12 14
13 12 11 10 9 7 5 3 2 1 2 3 4 5 6 7 7 8 8 8 8 9 9 9 10 11 13 14 14 14 13 14 12 13 13 14 14 17 15 14 14 15 15
12 11 10 9 7 5 4 2 1 2 3 4 5 6 7 8 9 8 8 8 9 9 10 11 11 11 11 11 12 14 14 14 15 16 15 15 15 16 15 16 16 16 17
11 9 9 7 6 5 3 1 2 3 5 6 7 8 9 10 10 10 9 11 12 13 14 14 15 16 15 15 14 14 14 15 17 18 18 16 18 19 17 17 18 19 19
9 8 8 6 5 3 2 2 3 5 6 7 8 9 9 8 9 9 12 13 14 15 15 16 17 18 19 18 18 16 15 16 17 16 16 16 19 19 19 19 19 19 19
8 7 6 4 3 1 1 2 3 5 6 6 7 8 8 9 10 12 12 13 14 14 15 16 17 17 16 14 15 17 14 15 16 18 17 17 18 17 16 18 17 17 17
8 6 5 4 2 1 1 3 3 5 6 6 7 8 8 8 9 9 9 10 10 13 10 12 13 12 13 14 14 15 15 16 17 17 16 19 16 15 13 13 12 13 13
7 6 5 3 2 0 2 2 3 4 5 6 7 8 8 8 9 10 10 12 12 11 13 12 12 13 13 13 14 14 15 16 16 16 16 18 15 13 13 13 13 13 13
8 8 6 4 2 1 1 3 4 5 5 5 6 8 8 8 9 10 11 11 12 12 13 14 13 13 13 13 12 13 13 13 14 14 15 16 16 15 16 16 14 14 15
9 8 9 5 4 2 2 3 4 4 4 5 7 7 8 8 8 9 10 11 10 11 12 13 14 14 14 13 13 12 12 11 11 12 12 12 13 12 12 13 12 13 14
10 9 9 8 6 4 1 3 4 3 4 5 5 7 8 8 8 9 9 9 9 10 11 12 13 13 13 13 13 12 11 9 9 9 10 10 10 10 11 11 12 12 12
9 10 10 9 8 4 1 2 3 2 2 3 5 7 8 8 9 9 9 9 10 10 10 11 12 13 12 12 12 12 11 9 8 7 6 5 5 5 7 9 10 12 13
10 10 11 10 8 5 2 3 3 3 1 3 4 5 7 7 8 9 8 9 11 10 10 11 11 11 13 12 14 13 10 10 7 3 3 2 3 3 6 9 11 12 13
10 10 10 10 8 5 3 3 2 2 1 2 3 4 5 6 7 8 8 9 9 8 9 10 11 11 11 12 15 11 5 4 2 1 3 4 4 6 7 7 8 8 12
10 11 11 11 8 6 4 2 1 2 2 2 4 5 5 6 6 7 7 8 8 8 9 10 10 11 10 12 11 8 2 3 5 2 4 4 5 7 7 6 7 8 10
8 10 11 10 9 7 3 3 3 2 3 5 6 5 6 7 8 7 7 7 8 8 8 9 8 10 8 9 8 7 3 3 3 0 1 2 6 7 6 6 6 7 9
6 8 9 9 8 6 5 4 4 5 6 6 6 7 7 10 9 8 7 7 7 7 7 8 8 7 8 9 8 4 3 3 11 3 2 5 7 7 5 6 7 6 7
4 7 9 9 7 6 6 5 6 7 8 7 9 10 11 11 10 10 9 7 7 7 7 8 6 6 6 8 8 2 4 5 3 4 4 8 7 7 6 7 8 8 8
5 7 7 7 7 6 7 8 8 9 10 11 11 13 13 12 12 11 11 8 7 7 7 8 6 6 6 6 8 8 7 6 10 7 8 9 11 9 8 9 7 7 7
4 5 5 5 6 7 8 9 10 11 12 13 14 15 13 11 11 11 12 11 9 9 8 8 7 6 8 8 9 9 9 6 7 9 7 10 10 13 15 9 7 6 5
Wind_Direction
155 158 159 147 137 128 119 111 103 97 95 92 91 95 86 75 60 45 39 35 22 32 55 60 66 59 360 354 348 336 341 357 9 39 37 48 52 54 10 342 28 347 300
149 154 155 147 139 131 121 111 103 98 96 93 88 85 74 53 35 21 8 3 2 341 25 37 31 14 2 4 347 278 305 317 322 321 350 5 360 3 351 342 330 305 309
147 153 151 149 142 133 123 114 106 98 92 87 80 68 56 29 20 9 3 359 359 355 282 304 340 346 328 321 315 302 293 298 300 297 298 307 316 322 327 328 331 332 326
147 150 154 156 145 135 124 114 103 92 79 68 51 29 12 6 355 356 355 358 359 355 259 288 297 312 317 311 289 282 284 284 285 287 289 283 293 300 305 295 306 306 305
144 148 155 154 150 136 125 114 101 90 64 35 18 0 348 337 332 333 335 333 336 340 309 288 287 291 296 297 295 286 278 277 281 282 272 273 277 284 298 282 281 290 286
141 142 151 146 140 135 129 119 114 91 82 26 13 353 339 341 349 346 340 332 323 314 304 298 293 287 285 285 286 287 282 276 276 273 269 268 270 267 279 282 273 271 275
142 140 137 142 138 135 132 125 116 96 48 358 339 330 329 326 324 319 316 316 313 310 304 299 294 288 285 286 282 279 278 275 269 268 266 267 265 266 276 274 270 267 266
141 133 129 144 138 135 127 115 90 16 338 332 330 327 330 331 330 325 319 315 310 309 311 312 304 298 292 285 280 280 276 268 267 266 263 264 263 266 273 273 270 270 270
136 135 129 126 133 131 123 96 43 353 333 324 320 321 325 326 325 323 323 317 311 305 305 307 305 303 298 295 288 280 277 272 262 265 263 264 267 272 275 271 269 270 269
137 134 132 127 121 107 88 27 336 330 330 330 328 326 328 330 322 322 317 311 308 306 304 303 300 299 299 297 294 286 278 269 265 262 258 257 261 272 272 269 270 270 268
136 134 137 135 137 111 86 328 340 324 327 332 329 322 334 331 328 325 310 307 303 301 299 297 295 295 294 296 292 284 283 275 269 267 265 266 266 274 275 275 274 274 273
149 142 146 148 142 116 345 351 345 339 340 344 345 338 334 328 319 323 322 316 313 308 309 307 306 304 307 293 289 292 282 275 274 271 268 264 270 275 277 279 280 282 281
159 156 165 165 143 114 40 12 4 348 348 344 346 347 341 342 339 335 332 328 325 321 323 321 320 315 307 300 289 283 278 275 271 271 272 274 273 275 282 289 295 294 299
172 175 181 174 164 338 4 26 6 357 347 347 349 356 351 345 340 338 332 327 325 322 320 320 316 313 310 305 298 290 280 273 269 269 271 277 279 273 280 286 289 291 293
189 195 196 204 220 267 7 8 355 353 349 357 357 357 356 348 344 339 333 329 325 324 321 319 316 313 310 307 304 298 292 282 274 271 269 277 280 275 276 280 286 292 295
203 208 211 216 233 248 331 1 354 351 356 2 5 1 1 357 346 340 337 332 330 329 325 320 316 313 310 308 306 306 301 292 283 276 274 275 284 279 278 280 293 298 299
216 210 216 219 225 229 293 338 352 352 4 10 9 6 4 358 349 344 342 340 335 330 329 327 323 317 310 309 309 312 307 302 295 286 277 277 285 299 289 290 294 298 305
222 220 220 219 218 218 253 332 340 355 3 16 7 8 3 358 353 344 342 339 335 331 330 332 329 324 317 317 318 318 310 304 298 296 292 291 295 297 313 307 311 309 308
223 217 214 209 205 207 240 310 315 316 356 360 6 359 354 354 351 345 342 338 335 329 332 332 329 323 320 323 321 317 312 302 284 300 341 347 357 358 336 328 330 331 319
226 220 210 204 196 193 226 297 285 297 313 334 336 333 343 343 345 348 342 340 340 338 333 336 332 329 325 331 322 314 322 341 87 113 57 63 41 4 355 350 345 331 345
221 210 204 200 191 190 210 245 251 245 280 285 297 315 319 325 331 337 336 334 342 337 339 337 331 329 339 345 338 336 314 121 50 102 114 57 15 5 3 358 357 356 357
214 207 200 193 191 199 217 254 236 260 260 273 285 297 311 321 320 318 318 322 326 329 333 336 334 328 328 353 345 307 312 192 230 321 299 340 355 359 353 360 1 357 348
197 194 190 188 191 202 230 247 270 287 284 279 270 282 289 306 306 304 301 308 311 314 322 326 325 323 320 332 345 339 316 329 338 197 294 332 344 352 356 350 352 348 347
160 170 174 182 191 215 247 243 244 260 268 269 283 286 291 291 290 292 293 289 293 301 310 309 319 299 306 311 324 264 308 307 314 311 302 315 333 337 334 343 331 334 339
130 158 171 185 206 231 250 243 247 259 273 282 284 287 286 281 282 284 284 275 279 285 287 292 299 279 280 285 292 297 298 273 267 265 300 318 327 327 314 321 321 325 345
128 157 182 205 231 238 242 249 255 267 279 283 286 288 291 288 282 275 278 274 267 266 271 279 283 276 270 265 269 275 269 277 294 282 295 309 314 323 322 296 301 300 324